Location: Libas
(9.8833°N, 125.9833°E)
Time: 21:15:59
(UTC+00:00)

IUS-18 SRM-1 - Pass Details

Date: 27 October 2020
Orbit: 296 x 20559 km, 28.0° (Epoch: 25 November)

Event Time Altitude Azimuth Distance (km) Brightness Sun altitude
Exits shadow 20:21:59 14° 301° (WNW) 6,824 7.2 -16.2°
Maximum altitude 20:36:17 59° 16° (NNE) 1,302 4.2 -12.7°
Drops below altitude 10° 20:40:15 10° 98° (E) 1,971 6.7 -11.8°
Sets 20:41:35 0° 103° (ESE) 2,552 8.0 -11.5°
